Regional Weather Roundup
Issued by NWS

Home | Current Version | Previous Version | Graphics & Text | Print | Product List | Glossary On
Versions: 1 2 3 4 5 6 7 8 9 10 11 12 13 14 15 16 17 18 19 20 21 22 23 24 25 26 27 28 29 30 31 32 33 34 35 36 37 38 39 40 41 42 43 44 45 46 47 48 49 50
247
ASUS43 KLOT 110107
RWRIL

ILLINOIS REGIONAL WEATHER ROUNDUP
NATIONAL WEATHER SERVICE CHICAGO/ROMEOVILLE IL
700 PM CST SAT DEC 10 2016

NOTE: "FAIR" INDICATES FEW OR NO CLOUDS BELOW 12,000 FEET WITH NO
SIGNIFICANT WEATHER AND/OR OBSTRUCTIONS TO VISIBILITY.

* THESE STATIONS ARE NOT UNDER NWS QUALITY CONTROL. THEY ALSO MAY NOT
  REPORT WEATHER SUCH AS PRECIPITATION OR FOG.

ILZ001-002-007-009-015-016-024-110200-
NORTHWEST ILLINOIS

CITY           SKY/WX    TMP DP  RH WIND       PRES   REMARKS
MOLINE         CLOUDY    24  19  81 E12       30.29F WCI  13
STERLING*      FLURRIES  22  20  92 E8        30.33F WCI  12
SAVANNA*       CLOUDY    22  19  88 SE9       30.31F WCI  12
$$

ILZ003-004-008-010-011-017-018-110200-
NORTH CENTRAL ILLINOIS

CITY           SKY/WX    TMP DP  RH WIND       PRES   REMARKS
ROCKFORD       LGT SNOW  21  18  88 SE7       30.36F FOG     WCI  12
FREEPORT*      LGT SNOW  21  19  91 SE6       30.34F WCI  13
ROCHELLE*      LGT SNOW  22  20  93 SE7       30.34F WCI  13
DE KALB*       LGT SNOW  22  20  93 SE6       30.35F WCI  14
$$

ILZ005-006-012>014-019>023-110200-
NORTHEAST ILLINOIS

CITY           SKY/WX    TMP DP  RH WIND       PRES   REMARKS
CHICAGO-OHARE  LGT SNOW  21  19  92 S5        30.37F VSB 1   WCI  15
CHICAGO-MIDWAY LGT SNOW  23  18  81 S7        30.39F FOG     WCI  15
AURORA         LGT SNOW  23  20  88 SE7       30.37F FOG     WCI  15
LANSING*       LGT SNOW  22  21  97 S3        30.40F
JOLIET*        LGT SNOW  24  22  93 SE3       30.39F VSB 1
WAUKEGAN       LGT SNOW  21  19  92 CALM      30.36F FOG
DUPAGE AIRPORT LGT SNOW  22  18  85 SE6       30.36F FOG     WCI  14
KANKAKEE*      LGT SNOW  24  22  91 CALM      30.40F
WHEELING       LGT SNOW  21  18  88 S5        30.39F FOG     WCI  15
MORRIS*        LGT SNOW  23  21  92 CALM      30.36F
ROMEOVILLE*    LGT SNOW  22  22 100 SE6       30.38F WCI  14
NORTHERLY ISL    N/A     23  20  88 S7          N/A  WCI  15
$$

LMZ740>746-110200-
SOUTHERN LAKE MICHIGAN

STATION/POSITION SKY/WX   TEMP    WIND        PRES    VSBY  WAVE
                          AIR SEA DIR/SP/G                  HT/PER
                          (F)     (DEG/KT/KT) (MB)    (MI)  (FT/S)
BURNHAM HARBOR             23     200/  7/  8   N/A
CALUMET HARBOR             22     160/  7/  9 1028.5F
BURNS HARBOR               23     180/  4/  7 1029.8F
$$

ILZ025>027-034>036-040-047-049-050-058-095>099-110200-
WEST-CENTRAL ILLINOIS

CITY           SKY/WX    TMP DP  RH WIND       PRES   REMARKS
QUINCY         CLOUDY    30  18  60 SE12G21   30.23F WCI  20
GALESBURG*     CLOUDY    23  20  89 E10       30.26F WCI  12
MACOMB*        CLOUDY    27  18  68 SE12      30.28F WCI  17
JACKSONVILLE*  CLOUDY    30  20  66 SE13      30.28F WCI  20
PITTSFIELD*    CLOUDY    31  20  64 SE10      30.26F WCI  22
$$

ILZ028>032-037-038-041>044-048-051>054-059>061-110200-
CENTRAL ILLINOIS

CITY           SKY/WX    TMP DP  RH WIND       PRES   REMARKS
PONTIAC        MIX PCPN  25  24  96 SE8       30.37F WCI  17
BLOOMINGTON    FLURRIES  25  20  81 SE13      30.33F WCI  14
DECATUR        CLOUDY    28  18  66 SE10      30.35F WCI  19
PEORIA         FLURRIES  25  21  85 E10       30.30F WCI  15
LACON*         FLURRIES  24  21  90 SE7       30.33F WCI  15
LINCOLN*       CLOUDY    29  20  67 SE12      30.32F WCI  20
SPRINGFIELD    CLOUDY    31  18  58 SE13      30.32F WCI  21
TAYLORVILLE    CLOUDY    29  19  66 CALM      30.33F
$$

ILZ033-039-045-046-055>057-062-063-110200-
EAST-CENTRAL ILLINOIS

CITY           SKY/WX    TMP DP  RH WIND       PRES   REMARKS
CHAMPAIGN      CLOUDY    28  18  66 SE13      30.36F WCI  17
RANTOUL*       CLOUDY    28  24  88 SE10      30.36F WCI  18
MATTOON        CLOUDY    28  16  60 SE10      30.36F WCI  19
PARIS*         CLOUDY    28  20  74 SE9       30.40F WCI  19
$$

ILZ079-100>102-110200-
SOUTHWEST ILLINOIS

CITY           SKY/WX    TMP DP  RH WIND       PRES   REMARKS
ALTON          CLOUDY    32  19  59 SE14      30.32F WCI  22
BELLEVILLE     CLOUDY    33  22  64 SE8       30.33F WCI  26
CAHOKIA*       CLOUDY    34  20  56 SE10      30.32F WCI  26
SPARTA*        CLOUDY    33  19  56 SE6       30.35F WCI  28
$$

ILZ064>066-069>071-074>076-080>082-084>086-088>090-092>094-110200-
SOUTH-CENTRAL ILLINOIS

CITY           SKY/WX    TMP DP  RH WIND       PRES   REMARKS
CARBONDALE     CLOUDY    34  20  56 SE7       30.36F WCI  28
CAIRO*         CLOUDY    36  20  52 SE6       30.38F WCI  32
EFFINGHAM*     CLOUDY    31  22  68 E8        30.38F WCI  23
MARION         CLOUDY    36  18  48 SE3       30.38S
CENTRALIA*     CLOUDY    33  21  60 SE7       30.35F WCI  27
SALEM*         CLOUDY    33  19  55 SE5       30.36F WCI  29
METROPOLIS*    CLOUDY    37  15  42 SE5       30.39S WCI  33
$$

ILZ067-068-072-073-078-083-087-091-110200-
SOUTHEAST ILLINOIS

CITY           SKY/WX    TMP DP  RH WIND       PRES   REMARKS
LAWRENCEVILLE  CLOUDY    30  19  63 E5        30.43S WCI  25
FLORA*         CLOUDY    33  22  65 SE7       30.39F WCI  26
FAIRFIELD*     CLOUDY    32  19  59 SE6       30.37F WCI  26
HARRISBURG*    CLOUDY    33  23  67 E5        30.39F WCI  28
ROBINSON*      CLOUDY    29  19  65 E5        30.44S WCI  24
CARMI*         CLOUDY    32  21  64 SE7       30.40F WCI  26
$$

ABBREVIATIONS USED IN REMARKS
   TC - TEMPERATURE IN CELSIUS
  WCI - WIND CHILL INDEX
   HX - HEAT INDEX
  VSB - VISIBILITY
$$





USA.gov is the U.S. government's official web portal to all federal, state and local government web resources and services.